| time (UTC) | temp C | wind direction | speed KPH | gust KPH | rain 1hr cm | rain 24hr cm | rain mn cm | humidity % | barometer mb |
| 20260507020006 | 16 | 323 | 3.2 | 16.1 | 0.00 | 0.00 | 0.00 | 84 | 1013.7 |
| 20260507014506 | 16 | 323 | 4.8 | 16.1 | 0.00 | 0.00 | 0.00 | 84 | 1013.4 |
| 20260507013000 | 16 | 34 | 6.4 | 20.9 | 0.00 | 0.00 | 0.00 | 83 | 1013.2 |
| 20260507011557 | 16 | 26 | 6.4 | 12.9 | 0.00 | 0.00 | 0.00 | 83 | 1012.9 |
| 20260507010111 | 16 | 319 | 6.4 | 20.9 | 0.00 | 0.00 | 0.00 | 83 | 1012.9 |
| 20260507004553 | 16 | 347 | 11.3 | 22.5 | 0.00 | 0.00 | 0.00 | 83 | 1012.6 |
| 20260507003050 | 16 | 314 | 9.7 | 24.1 | 0.00 | 0.00 | 0.00 | 82 | 1012.3 |
| 20260507001556 | 16 | 353 | 11.3 | 29.0 | 0.00 | 0.00 | 0.00 | 82 | 1012.3 |
| 20260507000051 | 16 | 21 | 9.7 | 25.7 | 0.00 | 0.00 | 0.00 | 82 | 1012.1 |
| 20260506234548 | 16 | 301 | 11.3 | 24.1 | 0.00 | 0.00 | 0.00 | 81 | 1012.1 |
| 20260506233057 | 16 | 328 | 12.9 | 29.0 | 0.00 | 0.00 | 0.00 | 82 | 1012.1 |
| 20260506231545 | 16 | 342 | 8.0 | 24.1 | 0.00 | 0.00 | 0.00 | 81 | 1011.8 |
| 20260506230046 | 16 | 352 | 11.3 | 30.6 | 0.00 | 0.00 | 0.00 | 81 | 1011.9 |
| 20260506224543 | 16 | 344 | 16.1 | 30.6 | 0.00 | 0.00 | 0.00 | 80 | 1011.8 |
| 20260506223044 | 17 | 338 | 8.0 | 32.2 | 0.00 | 0.00 | 0.00 | 80 | 1011.7 |
| 20260506221545 | 17 | 45 | 12.9 | 25.7 | 0.00 | 0.00 | 0.00 | 79 | 1011.3 |
| 20260506220045 | 17 | 335 | 12.9 | 32.2 | 0.00 | 0.00 | 0.00 | 78 | 1011.6 |
| 20260506214533 | 17 | 331 | 11.3 | 35.4 | 0.00 | 0.00 | 0.00 | 78 | 1011.5 |
| 20260506213032 | 18 | 1 | 16.1 | 30.6 | 0.00 | 0.00 | 0.00 | 77 | 1011.4 |
| 20260506211534 | 19 | 307 | 16.1 | 32.2 | 0.00 | 0.00 | 0.00 | 75 | 1011.2 |
| 20260506210030 | 20 | 63 | 12.9 | 32.2 | 0.00 | 0.00 | 0.00 | 74 | 1011.1 |
| 20260506204529 | 20 | 349 | 19.3 | 29.0 | 0.00 | 0.00 | 0.00 | 76 | 1011.2 |
| 20260506203028 | 20 | 340 | 20.9 | 32.2 | 0.00 | 0.00 | 0.00 | 76 | 1011.6 |
| 20260506201528 | 20 | 306 | 16.1 | 33.8 | 0.00 | 0.00 | 0.00 | 78 | 1011.4 |
| 20260506200026 | 21 | 342 | 17.7 | 35.4 | 0.00 | 0.00 | 0.00 | 76 | 1011.3 |
| 20260506194525 | 21 | 331 | 17.7 | 30.6 | 0.00 | 0.00 | 0.00 | 78 | 1011.1 |
| 20260506193031 | 22 | 331 | 17.7 | 30.6 | 0.00 | 0.00 | 0.00 | 76 | 1010.9 |
| 20260506191524 | 25 | 8 | 12.9 | 20.9 | 0.00 | 0.00 | 0.00 | 72 | 1010.8 |
| 20260506190024 | 25 | 3 | 6.4 | 14.5 | 0.00 | 0.00 | 0.00 | 74 | 1011.2 |
| 20260506184525 | 25 | 310 | 4.8 | 16.1 | 0.00 | 0.00 | 0.00 | 74 | 1011.1 |
| 20260506183022 | 25 | 113 | 4.8 | 9.7 | 0.00 | 0.00 | 0.00 | 75 | 1010.9 |
| 20260506181517 | 23 | 13 | 6.4 | 12.9 | 0.00 | 0.00 | 0.00 | 76 | 1011.1 |
| 20260506180017 | 23 | 121 | 1.6 | 11.3 | 0.00 | 0.00 | 0.00 | 78 | 1011.0 |
| 20260506174515 | 21 | 45 | 3.2 | 14.5 | 0.00 | 0.00 | 0.00 | 81 | 1011.2 |
| 20260506173015 | 21 | 88 | 4.8 | 14.5 | 0.00 | 0.00 | 0.00 | 81 | 1011.1 |
| 20260506171513 | 20 | 64 | 4.8 | 14.5 | 0.00 | 0.00 | 0.00 | 81 | 1011.4 |
| 20260506170013 | 20 | 53 | 9.7 | 19.3 | 0.00 | 0.00 | 0.00 | 82 | 1011.3 |
| 20260506164512 | 18 | 280 | 6.4 | 17.7 | 0.00 | 0.00 | 0.00 | 85 | 1011.7 |
| 20260506163013 | 17 | 39 | 11.3 | 27.4 | 0.00 | 0.00 | 0.00 | 87 | 1011.9 |
| 20260506161507 | 18 | 323 | 19.3 | 35.4 | 0.00 | 0.00 | 0.00 | 85 | 1012.2 |
| 20260506160001 | 22 | 1 | 16.1 | 27.4 | 0.00 | 0.00 | 0.00 | 81 | 1012.1 |
| 20260506154602 | 23 | 96 | 3.2 | 8.0 | 0.00 | 0.00 | 0.00 | 87 | 1011.7 |
| 20260506153058 | 23 | 94 | 0.0 | 4.8 | 0.00 | 0.00 | 0.00 | 88 | 1011.4 |
| 20260506151555 | 23 | 88 | 3.2 | 4.8 | 0.00 | 0.00 | 0.00 | 87 | 1010.9 |
| 20260506150100 | 23 | 160 | 0.0 | 6.4 | 0.00 | 0.00 | 0.00 | 88 | 1010.5 |
| 20260506144603 | 23 | 146 | 4.8 | 8.0 | 0.00 | 0.00 | 0.00 | 88 | 1010.2 |
| 20260506143054 | 23 | 183 | 4.8 | 14.5 | 0.00 | 0.00 | 0.00 | 89 | 1010.1 |
| 20260506141550 | 23 | 176 | 4.8 | 8.0 | 0.00 | 0.00 | 0.00 | 89 | 1009.8 |
| 20260506134545 | 23 | 169 | 3.2 | 8.0 | 0.00 | 0.00 | 0.00 | 91 | 1009.3 |
| 20260506133056 | 22 | 146 | 4.8 | 9.7 | 0.00 | 0.00 | 0.00 | 92 | 1009.4 |
| 20260506131546 | 22 | 131 | 3.2 | 12.9 | 0.00 | 0.00 | 0.00 | 93 | 1009.3 |
| 20260506130107 | 22 | 98 | 3.2 | 11.3 | 0.00 | 0.00 | 0.00 | 93 | 1009.1 |
| 20260506124541 | 22 | 131 | 3.2 | 8.0 | 0.00 | 0.00 | 0.00 | 93 | 1009.0 |
| 20260506123046 | 22 | 129 | 1.6 | 8.0 | 0.00 | 0.00 | 0.00 | 93 | 1009.1 |
| 20260506121549 | 22 | 98 | 1.6 | 6.4 | 0.00 | 0.00 | 0.00 | 92 | 1009.1 |
| 20260506120037 | 22 | 134 | 1.6 | 3.2 | 0.00 | 0.00 | 0.00 | 92 | 1009.1 |
| 20260506114536 | 22 | 143 | 0.0 | 3.2 | 0.00 | 0.00 | 0.00 | 91 | 1008.9 |
| 20260506113039 | 22 | 122 | 0.0 | 3.2 | 0.00 | 0.00 | 0.00 | 91 | 1009.0 |
| 20260506111534 | 22 | 129 | 0.0 | 6.4 | 0.00 | 0.00 | 0.00 | 91 | 1008.9 |
| 20260506110040 | 22 | 143 | 1.6 | 8.0 | 0.00 | 0.00 | 0.00 | 91 | 1008.8 |
| 20260506104530 | 22 | 146 | 3.2 | 14.5 | 0.00 | 0.00 | 0.00 | 91 | 1008.6 |
| 20260506103030 | 22 | 200 | 4.8 | 12.9 | 0.00 | 0.00 | 0.00 | 91 | 1008.5 |
| 20260506101533 | 22 | 209 | 4.8 | 16.1 | 0.00 | 0.00 | 0.00 | 91 | 1008.3 |
| 20260506100029 | 22 | 209 | 6.4 | 20.9 | 0.00 | 0.00 | 0.00 | 91 | 1008.3 |
| 20260506094529 | 22 | 176 | 9.7 | 19.3 | 0.00 | 0.00 | 0.00 | 91 | 1008.2 |
| 20260506093033 | 22 | 165 | 9.7 | 16.1 | 0.00 | 0.00 | 0.00 | 91 | 1008.0 |
| 20260506091527 | 22 | 188 | 8.0 | 17.7 | 0.00 | 0.00 | 0.00 | 91 | 1007.8 |
| 20260506090033 | 22 | 166 | 4.8 | 19.3 | 0.00 | 0.00 | 0.00 | 91 | 1007.7 |
| 20260506084532 | 22 | 181 | 8.0 | 24.1 | 0.00 | 0.00 | 0.00 | 91 | 1007.7 |
| 20260506083030 | 22 | 170 | 9.7 | 17.7 | 0.00 | 0.00 | 0.00 | 91 | 1007.8 |
| 20260506081523 | 22 | 138 | 8.0 | 17.7 | 0.00 | 0.00 | 0.00 | 91 | 1007.8 |
| 20260506073019 | 22 | 221 | 9.7 | 20.9 | 0.00 | 0.00 | 0.00 | 90 | 1008.2 |
| 20260506071519 | 23 | 161 | 11.3 | 19.3 | 0.00 | 0.00 | 0.00 | 89 | 1008.4 |
| 20260506061514 | 23 | 207 | 12.9 | 24.1 | 0.00 | 0.00 | 0.00 | 89 | 1008.3 |
| 20260506044506 | 23 | 165 | 12.9 | 22.5 | 0.00 | 0.00 | 0.00 | 87 | 1008.6 |
| 20260506043002 | 23 | 228 | 12.9 | 29.0 | 0.00 | 0.00 | 0.00 | 88 | 1008.5 |
| 20260506041502 | 23 | 167 | 8.0 | 20.9 | 0.00 | 0.00 | 0.00 | 87 | 1008.4 |
| 20260506040100 | 23 | 175 | 9.7 | 19.3 | 0.00 | 0.00 | 0.00 | 87 | 1008.3 |
| 20260506034615 | 23 | 179 | 9.7 | 19.3 | 0.00 | 0.00 | 0.00 | 87 | 1008.1 |
| 20260506033058 | 23 | 167 | 8.0 | 19.3 | 0.00 | 0.00 | 0.00 | 86 | 1007.9 |
| 20260506031604 | 23 | 167 | 6.4 | 14.5 | 0.00 | 0.00 | 0.00 | 86 | 1007.7 |
| 20260506030057 | 24 | 170 | 8.0 | 19.3 | 0.00 | 0.00 | 0.00 | 85 | 1007.5 |
| 20260506024558 | 24 | 154 | 6.4 | 17.7 | 0.00 | 0.00 | 0.00 | 84 | 1007.3 |
| 20260506023101 | 24 | 154 | 9.7 | 20.9 | 0.00 | 0.00 | 0.00 | 83 | 1007.0 |
| 20260506021555 | 25 | 176 | 8.0 | 17.7 | 0.00 | 0.00 | 0.00 | 81 | 1006.7 |